Racecast

Kaitlyn Leist

Temperance Bedford (MI) · 12 · SECMI D1MONROE · Compare head to head

Athlete rating 124.6 2014 TF season
Best race 135.5 XC
Races 58
Seasons 5 2010 — 2014

RankedNation #7458·OH #433·Team #3 ?

Cross Country

2013 XC 124.2

Temperance Bedford (MI) · Grade 12

Date Meet Event Result Place Rating Difficulty PR/SR Flags
2013-11-02 Michigan International Speedway (MIS) 5000m 20:48.4 189th · 4th on team 127.5 +0.022 SR CSR
2013-10-26 Lake Erie Metro Park OFFICIAL 5000m 20:51.5 26th · 4th on team 131.8 +0.055 SR CSR RSR
2013-10-17 Hudson Mills Metropark - OFFICIAL 5000m 21:13.1 25th · 6th on team 125.5 +0.036 CSR
2013-10-05 Portage West MS 5000m 21:06 114th · 4th on team 128.5 +0.038 CSR RSR
2013-09-28 Pearson's Metro Park 5000m 21:09 42nd · 3rd on team 120.6 -0.022 CSR
2013-09-21 Ella Sharp Park OFFICIAL 5000m 22:27.5 117th · 8th on team 119.1 +0.038 CSR
2013-09-13 Forest Akers East Golf Course 5000m 21:06 115th · 6th on team 128.4 +0.061 ★CR SR CSR RSR
2013-09-10 Pioneer HS 5000m 23:56.3 63rd · 1st on team 115.8 +0.067 CSR
2013-09-07 Hedges Boyer Park 5000m 21:20.4 98th · 2nd on team 118.5 -0.036 SR CSR
2013-08-24 Island Lake Recreation Area OFFICIAL 5000m 22:11 12th · 5th on team 126.2 +0.069 SR CSR RSR

2012 XC 129.4

Temperance Bedford (MI) · Grade 11

Date Meet Event Result Place Rating Difficulty PR/SR Flags
2012-11-03 Michigan International Speedway (MIS) 5000m 20:40.5 194th · 3rd on team 127.2 +0.022 ★CR CSR
2012-10-27 Lake Erie Metro Park OFFICIAL 5000m 20:11.9 13th · 3rd on team 135.5 +0.055 ★CR ★R CSR RSR
2012-10-18 Hudson Mills Metropark - OFFICIAL 5000m 20:24.5 14th · 4th on team 132.6 +0.036 ★CR CSR
2012-10-06 Portage West MS 5000m 20:00.9 77th · 2nd on team 133.2 +0.038 ★PR ★CR R SR CSR RSR
2012-09-29 Pearson's Metro Park 5000m 20:53 31st · 1st on team 121.2 -0.022 ★CR CSR
2012-09-27 Munson Park 5000m 20:40.5 16th · 1st on team 131.1 +0.054 ★CR R CSR RSR
2012-09-22 Ella Sharp Park OFFICIAL 5000m 20:31.9 47th · 1st on team 129.5 +0.038 ★CR CSR
2012-09-11 Indian Creek OFFICIAL 5000m 20:51.7 18th · 1st on team 129.7 +0.039 ★CR CSR RSR
2012-09-08 Hedges Boyer Park 5000m 20:12 49th · 2nd on team 124.8 -0.036 PR ★CR SR CSR
2012-08-25 Island Lake Recreation Area OFFICIAL 5000m 21:31 12th · 3rd on team 129.6 +0.069 ★CR SR CSR RSR

2011 XC 123.7

Temperance Bedford (MI) · Grade 10

Date Meet Event Result Place Rating Difficulty PR/SR Flags
2011-11-05 Michigan International Speedway (MIS) 5000m 22:48.7 235th · 7th on team 116.4 +0.022 CR CSR
2011-10-29 Lake Erie Metro Park OFFICIAL 5000m 22:42.1 25th · 7th on team 119.6 +0.055 CSR
2011-10-20 Hudson Mills Metropark - OFFICIAL 5000m 20:46 6th · 1st on team 130.8 +0.036 PR CR R SR CSR RSR
2011-10-08 Portage West MS 5000m 21:56.4 115th · 7th on team 124.6 +0.038 CR CSR
2011-10-01 Pearson's Metro Park 5000m 21:33 5th · 5th on team 117.7 -0.022 CR CSR
2011-09-27 Mill Pond Park 5000m 22:00.6 18th · 4th on team 127.8 +0.081 ★CR CSR
2011-09-24 Ella Sharp Park OFFICIAL 5000m 20:59.7 72nd · 5th on team 128.5 +0.038 PR CR SR CSR
2011-09-16 Forest Akers East Golf Course 5000m 21:08 166th · 5th on team 128.5 +0.061 PR CR R SR CSR RSR
2011-09-13 Willow Metropark OFFICIAL 5000m 22:04.9 39th · 6th on team 124.7 +0.048 ★CR CSR RSR
2011-09-10 Hedges Boyer Park 5000m 21:11 100th · 5th on team 117.8 -0.036 PR CR SR CSR
2011-08-27 Island Lake Recreation Area OFFICIAL 5000m 22:18 42nd · 5th on team 124.5 +0.069 CR SR CSR RSR

2010 XC 121.5

Temperance Bedford (MI) · Grade 9

Date Meet Event Result Place Rating Difficulty PR/SR Flags
2010-10-30 Lake Erie Metro Park OFFICIAL 5000m 21:40 4th · 4th on team 127.7 +0.055 PR CR R SR CSR RSR
2010-10-21 Hudson Mills Metropark - OFFICIAL 5000m 21:58 32nd · 5th on team 122.8 +0.036 PR CR SR CSR
2010-10-09 Portage West MS 5000m 24:04.3 109th · 6th on team 113.5 +0.038 CR CSR
2010-09-28 Pioneer HS 5000m 23:09 46th · 5th on team 120.5 +0.067 ★CR CSR
2010-09-25 Ella Sharp Park OFFICIAL 5000m 22:03.7 121st · 9th on team 121.7 +0.038 PR CR SR CSR
2010-09-17 Forest Akers East Golf Course 5000m 22:05 27th · 4th on team 125.3 +0.061 PR CR R SR CSR RSR
2010-09-14 Heritage Park (Adrian) OFFICIAL 5000m 23:37 36th · 3rd on team 119.4 +0.084 PR ★CR R SR CSR RSR

Track & Field

2014 TF 120.0

Temperance Bedford (MI) · Grade 12

Date Meet Event Result Place Rating Difficulty PR/SR Flags
2014-05-09 SEC Championships 1600m 5:45.38 5th · 1st on team 120.2 -0.032
2014-05-06 Saline Quad 800m 2:37.67 10th · 2nd on team 114.8 -0.042 SR
2014-05-06 Saline Quad 400m 1:04.7 8th · 3rd on team -0.042 ★PR SR
2014-04-17 Springfield Invitational 1600m 5:31.49 1st · 1st on team 124.8 -0.029 RSR
2014-04-11 Whitmer Golden W Invitational 1600m 5:29.73 2nd · 1st on team 123.9 -0.040 ★PR SR RSR
2014-04-04 Knight Warm-Up 1600m 5:53.9 3rd · 1st on team 116.0 -0.043 SR RSR

2013 TF 122.5

Temperance Bedford (MI) · Grade 11

Date Meet Event Result Place Rating Difficulty PR/SR Flags
2013-05-23 SEC Championship-GIRLS 1600m 5:34.82 8th · 1st on team 123.4 -0.033 RSR
2013-05-23 SEC Championship-GIRLS 1600m 5:34.82 8th · 1st on team 123.4 -0.033
2013-05-10 Siena Heights Invitational 1600m 5:40.33 11th · 3rd on team 120.4 -0.037
2013-05-03 Golden Triangle Invitational 1600m 5:34.02 18th · 1st on team 122.7 -0.038 SR RSR

2012 TF 120.9

Temperance Bedford (MI) · Grade 10

Date Meet Event Result Place Rating Difficulty PR/SR Flags
2012-05-23 SEC Girls Championships 1600m 5:32.09 6th · 2nd on team 123.2 -0.038 PR SR
2012-05-18 MHSAA Region 3-1 1600m 5:52.8 16th · 4th on team 115.3 -0.042
2012-05-11 Siena Heights Invitational 800m 2:26.37 9th · 1st on team 123.5 -0.037 ★PR SR RSR
2012-05-04 Golden Triangle Invitational 800m 2:29.37 14th · 1st on team 120.5 -0.038 PR SR RSR
2012-05-04 Golden Triangle Invitational 1600m 5:33.41 21st · 3rd on team 121.8 -0.038 PR SR RSR

2011 TF 117.6

Temperance Bedford (MI) · Grade 9

Date Meet Event Result Place Rating Difficulty PR/SR Flags
2011-05-28 Dundee Freshmen Meet 800m 2:33.4 1st · 1st on team 120.3 -0.022 PR SR RSR
2011-05-28 Dundee Freshmen Meet 1600m 5:41.3 1st · 1st on team 121.4 -0.022 PR SR RSR
2011-05-20 MHSAA Regional 1600m 5:43.7 17th · 2nd on team 117.5 -0.042 PR SR RSR
2011-05-06 Golden Triangle Invitational 1600m 5:52.7 6th · 1st on team 115.3 -0.042 PR SR RSR
2011-05-06 Golden Triangle Invitational 800m 2:39.3 24th · 3rd on team 113.5 -0.042 PR SR